Location: アルンシュタイン
(50.0000°N, 10.0000°E)
Time: 13:56:34
(UTC+02:00)

Envisat - Visible Passes

Search period start: 23 October 2021 00:00
Search period end: 01 November 2021 23:00
Orbit: 764 x 766 km, 98.2° (Epoch: 22 October)

Date Brightness Start Highest point End Pass type
(mag) Time Alt. Az. Time Alt. Az. Time Alt. Az.
23 Oct 5.7 05:17:21 10° NE 05:20:52 18° E 05:24:20 10° SE visible
23 Oct 3.0 06:55:20 10° N 07:00:25 71° WNW 07:05:28 10° SSW visible
24 Oct 3.6 06:18:30 10° NNE 06:23:32 59° E 06:28:32 10° S visible
24 Oct 6.7 19:21:37 10° W 19:22:34 10° W 19:23:29 10° WNW visible
25 Oct 5.0 05:42:01 10° NNE 05:46:27 29° E 05:50:52 10° SSE visible
25 Oct 3.3 07:20:49 10° N 07:25:39 44° WNW 07:30:27 10° SW visible
25 Oct 5.9 18:41:17 10° SW 18:45:10 22° W 18:49:05 10° NW visible
26 Oct 6.0 05:06:20 10° NE 05:09:10 15° E 05:12:01 10° ESE visible
26 Oct 3.0 06:43:47 10° NNE 06:48:54 87° WNW 06:53:59 10° SSW visible
27 Oct 4.0 06:07:02 10° NNE 06:11:58 47° E 06:16:51 10° S visible
27 Oct 6.3 19:08:25 10° WSW 19:10:50 13° W 19:13:16 10° WNW visible
28 Oct 5.3 05:30:43 10° NE 05:34:49 24° E 05:38:55 10° SE visible
28 Oct 3.1 07:09:12 10° N 07:14:10 54° WNW 07:19:07 10° SW visible
28 Oct 5.6 18:29:16 10° SSW 18:33:32 27° W 18:37:49 10° NW visible
29 Oct 6.1 04:55:39 10° ENE 04:57:29 12° E 04:59:18 10° ESE visible
29 Oct 3.2 06:32:15 10° NNE 06:37:22 77° ESE 06:42:27 10° S visible
30 Oct 4.5 05:55:37 10° NNE 06:00:22 38° E 06:05:05 10° SSE visible
30 Oct 6.1 18:55:57 10° SW 18:59:08 17° W 19:02:22 10° NW visible
31 Oct 5.6 04:19:30 10° NE 04:23:10 20° E 04:26:48 10° SE visible
31 Oct 3.0 05:57:36 10° N 06:02:40 67° WNW 06:07:42 10° SSW visible
01 Nov 3.5 05:20:45 10° NNE 05:25:49 63° ESE 05:30:51 10° S visible
